Погода в Ферни

Канада     49°30′17″N   115°04′07″W
темп.,
°C
ветер,
м/с
пор.,
м/с
влажн.,
%
обл.,
%
осадки,
мм/ч
давл.,
гПа
погр.,
м
18 апреля, вс
вс1823:000всв218640 0.0 102514
02:00−1всв22878 0.0 102518
05:00−2всв22914 0.0 102522
08:00+5всв127268 0.0 1021233
11:00+5в4578100 0.1 1021919
14:000всв4985100 4.1 10271177
17:00−1всв41176100 6.8 10291472
20:00−3св2592100 0.8 1032404
19 апреля, пн
пн1923:00−7в23947 0.9 103650
02:00−9всв22947 0.0 103740
05:00−9всв21947 0.0 103735
08:00−3всв11695 0.0 1034504
11:00+2зсз115477 0.0 10301405
14:00+4сз225045 0.0 10271556
17:00+4зсз115260 0.0 10241353
20:00−3всв21945 0.0 102913
20 апреля, вт
вт2023:00−5всв22966 0.0 103150
02:00−5всв21966 0.0 103036
05:00−5всв21958 0.0 103035
08:000св11737 0.0 1027399
11:00+5с115588 0.0 10231280
14:00+7с114690 0.0 10201800
17:00+7с114764 0.1 10181523
20:00−1в21895 0.0 102313
21 апреля, ср
ср2123:00−3в21945 0.0 102415
02:00−3в11956 0.0 102411
05:00−4в11956 0.0 102311
08:00+3зюз11685 0.0 1020289
11:00+8зюз22525 0.0 10161061
14:00+10зюз22434 0.0 10141397
17:00+10з23415 0.0 10121439
20:00+2ссв11725 0.0 101410
22 апреля, чт
чт2223:00+1вюв118093 0.0 101410
02:00+1ю1185100 0.0 101313
05:00+1ююв1188100 0.0 101310
08:00+3ююз1278100 0.3 1013212
11:00+4в2397100 2.1 1013389
14:00+2в3480100 1.9 1016879
17:00+2в2382100 2.9 1016692
20:00−1всв2394100 0.5 1019161